GW5738 Weather Reports


time (UTC)temp
C
wind
direction
speed
KPH
gust
KPH
rain 1hr
cm
rain 24hr
cm
rain mn
cm
humidity
%
barometer
mb
20260506195636 17 114 4.8 11.3 0.00 0.00 0.00 77 1010.2
20260506195554 17 129 11.3 11.3 0.00 0.00 0.00 77 1013.5
20260506195136 17 128 9.7 9.7 0.00 0.00 0.00 77 1010.2
20260506195052 17 282 0.0 11.3 0.00 0.00 0.00 77 1013.5
20260506194636 17 151 1.6 11.3 0.00 0.00 0.00 77 1010.2
20260506194554 17 112 3.2 14.5 0.00 0.00 0.00 77 1013.5
20260506194136 17 97 4.8 9.7 0.00 0.00 0.00 75 1009.8
20260506194052 17 135 6.4 8.0 0.00 0.00 0.00 76 1013.5
20260506193636 17 118 8.0 11.3 0.00 0.00 0.00 75 1009.9
20260506193552 17 151 3.2 9.7 0.00 0.00 0.00 75 1013.2
20260506193136 17 146 8.0 11.3 0.00 0.00 0.00 74 1009.7
20260506193052 17 185 3.2 11.3 0.00 0.00 0.00 75 1013.2
20260506192636 17 146 0.0 11.3 0.00 0.00 0.00 74 1009.8
20260506192554 17 152 6.4 8.0 0.00 0.00 0.00 74 1012.9
20260506192136 18 248 0.0 4.8 0.00 0.00 0.00 74 1009.5
20260506192052 17 254 0.0 8.0 0.00 0.00 0.00 74 1012.9
20260506191636 18 76 1.6 6.4 0.00 0.00 0.00 74 1009.7
20260506191552 18 89 4.8 9.7 0.00 0.00 0.00 74 1012.9
20260506191136 18 76 1.6 6.4 0.00 0.00 0.00 74 1009.6
20260506191053 18 34 1.6 8.0 0.00 0.00 0.00 74 1013.2
20260506190636 18 59 1.6 9.7 0.00 0.00 0.00 73 1009.7
20260506190551 18 173 0.0 6.4 0.00 0.00 0.00 73 1012.9
20260506190136 18 124 3.2 8.0 0.00 0.00 0.00 73 1009.6
20260506190052 18 134 3.2 11.3 0.00 0.00 0.00 73 1012.9
20260506185636 18 116 3.2 8.0 0.00 0.00 0.00 73 1009.6
20260506185555 18 259 1.6 9.7 0.00 0.00 0.00 73 1012.9
20260506185136 18 143 4.8 9.7 0.00 0.00 0.00 73 1009.4
20260506185050 18 95 6.4 9.7 0.00 0.00 0.00 73 1012.9
20260506184636 18 143 4.8 9.7 0.00 0.00 0.00 73 1009.4
20260506184550 18 117 8.0 9.7 0.00 0.00 0.00 73 1012.9
20260506184136 18 104 9.7 11.3 0.00 0.00 0.00 73 1009.3
20260506184054 18 112 6.4 12.9 0.00 0.00 0.00 73 1012.9
20260506183636 18 120 9.7 9.7 0.00 0.00 0.00 72 1009.5
20260506183552 18 143 6.4 9.7 0.00 0.00 0.00 72 1012.9
20260506183136 18 81 6.4 11.3 0.00 0.00 0.00 72 1009.3
20260506183053 18 106 6.4 9.7 0.00 0.00 0.00 72 1012.9
20260506182636 18 81 3.2 11.3 0.00 0.00 0.00 72 1009.4
20260506182552 18 149 3.2 8.0 0.00 0.00 0.00 72 1012.9
20260506182136 18 294 0.0 3.2 0.00 0.00 0.00 76 1009.2
20260506182055 18 141 3.2 6.4 0.00 0.00 0.00 73 1012.5
20260506181636 18 202 3.2 3.2 0.00 0.00 0.00 76 1009.2
20260506181556 18 240 3.2 4.8 0.00 0.00 0.00 76 1012.5
20260506181136 18 212 3.2 6.4 0.00 0.00 0.00 75 1009.1
20260506181051 18 226 4.8 6.4 0.00 0.00 0.00 75 1012.5
20260506180636 18 269 0.0 4.8 0.00 0.00 0.00 76 1009.2
20260506180552 18 257 3.2 4.8 0.00 0.00 0.00 75 1012.5
20260506180136 18 254 4.8 9.7 0.00 0.00 0.00 75 1009.2
20260506180052 18 240 4.8 9.7 0.00 0.00 0.00 75 1012.5
20260506175636 18 254 4.8 9.7 0.00 0.00 0.00 75 1009.0
20260506175552 18 238 1.6 8.0 0.00 0.00 0.00 75 1012.5
20260506175136 18 260 4.8 14.5 0.00 0.00 0.00 75 1008.9
20260506175053 18 250 3.2 14.5 0.00 0.00 0.00 75 1012.2
20260506174636 18 235 4.8 11.3 0.00 0.00 0.00 73 1009.1
20260506174554 18 237 4.8 9.7 0.00 0.00 0.00 74 1012.5
20260506174136 19 257 9.7 9.7 0.00 0.00 0.00 72 1008.9
20260506174053 19 268 6.4 14.5 0.00 0.00 0.00 73 1012.5
20260506173636 19 283 3.2 8.0 0.00 0.00 0.00 70 1009.1
20260506173552 19 267 4.8 9.7 0.00 0.00 0.00 72 1012.5
20260506173136 20 175 6.4 11.3 0.00 0.00 0.00 67 1008.9
20260506173054 20 271 6.4 6.4 0.00 0.00 0.00 68 1012.5
20260506172636 20 13 3.2 8.0 0.00 0.00 0.00 68 1009.0
20260506172552 20 119 4.8 8.0 0.00 0.00 0.00 65 1012.2
20260506172136 20 301 1.6 6.4 0.00 0.00 0.00 69 1009.0
20260506172052 20 310 4.8 8.0 0.00 0.00 0.00 68 1012.5
20260506171636 20 250 4.8 12.9 0.00 0.00 0.00 69 1008.7
20260506171552 20 240 3.2 6.4 0.00 0.00 0.00 69 1012.2
20260506171136 21 272 16.1 17.7 0.00 0.00 0.00 65 1008.8
20260506171054 20 265 9.7 12.9 0.00 0.00 0.00 68 1012.5
20260506170636 21 97 4.8 4.8 0.00 0.00 0.00 55 1008.9
20260506170554 21 275 14.5 17.7 0.00 0.00 0.00 65 1012.2
20260506170136 21 97 4.8 4.8 0.00 0.00 0.00 55 1008.9
20260506170053 21 120 4.8 4.8 0.00 0.00 0.00 55 1012.2
20260506165636 21 141 1.6 4.8 0.00 0.00 0.00 57 1008.7
20260506165553 21 101 1.6 6.4 0.00 0.00 0.00 56 1012.2
20260506165136 21 205 6.4 6.4 0.00 0.00 0.00 57 1008.9
20260506165053 21 175 3.2 6.4 0.00 0.00 0.00 57 1012.2
20260506164636 20 133 6.4 3.2 0.00 0.00 0.00 59 1008.9
20260506164553 20 154 0.0 6.4 0.00 0.00 0.00 58 1012.2
20260506164136 21 273 4.8 6.4 0.00 0.00 0.00 60 1008.9
20260506164052 21 188 4.8 8.0 0.00 0.00 0.00 58 1012.2
20260506163636 20 125 3.2 6.4 0.00 0.00 0.00 60 1008.8
20260506163552 20 301 6.4 6.4 0.00 0.00 0.00 60 1012.2
20260506163136 20 123 4.8 6.4 0.00 0.00 0.00 60 1008.7
20260506163054 20 89 3.2 8.0 0.00 0.00 0.00 60 1012.2
20260506162636 19 123 4.8 6.4 0.00 0.00 0.00 61 1008.8
20260506162553 19 127 4.8 4.8 0.00 0.00 0.00 62 1012.2
20260506162053 19 97 4.8 6.4 0.00 0.00 0.00 62 1012.2
20260506161554 19 95 4.8 12.9 0.00 0.00 0.00 63 1012.2
20260506161241 19 37 3.2 11.3 0.00 0.00 0.00 63 1008.7
20260506161053 19 109 6.4 11.3 0.00 0.00 0.00 63 1012.2
20260506160741 19 116 1.6 6.4 0.00 0.00 0.00 62 1008.8
20260506160552 19 81 1.6 9.7 0.00 0.00 0.00 62 1012.2
20260506160241 19 120 6.4 11.3 0.00 0.00 0.00 62 1008.8
20260506160053 19 325 1.6 6.4 0.00 0.00 0.00 62 1012.2
20260506155741 19 71 4.8 11.3 0.00 0.00 0.00 62 1008.6
20260506155553 19 85 1.6 8.0 0.00 0.00 0.00 62 1012.2
20260506155241 19 71 4.8 9.7 0.00 0.00 0.00 62 1008.7
20260506155053 19 87 4.8 9.7 0.00 0.00 0.00 62 1011.9
20260506154741 19 70 4.8 12.9 0.00 0.00 0.00 62 1008.8
20260506154552 19 41 4.8 8.0 0.00 0.00 0.00 63 1012.2
20260506154241 19 80 6.4 14.5 0.00 0.00 0.00 64 1008.8
20260506154052 19 86 8.0 12.9 0.00 0.00 0.00 64 1012.2
20260506153741 19 104 4.8 9.7 0.00 0.00 0.00 64 1008.7
20260506153553 19 103 6.4 8.0 0.00 0.00 0.00 64 1012.2
20260506153241 19 83 3.2 9.7 0.00 0.00 0.00 64 1008.8
20260506153055 19 53 4.8 8.0 0.00 0.00 0.00 64 1012.2
20260506152741 19 83 0.0 9.7 0.00 0.00 0.00 64 1008.7
20260506152553 19 102 8.0 9.7 0.00 0.00 0.00 65 1012.2
20260506152241 19 84 0.0 11.3 0.00 0.00 0.00 65 1008.7
20260506152054 19 118 4.8 9.7 0.00 0.00 0.00 64 1011.9
20260506151741 19 101 11.3 11.3 0.00 0.00 0.00 65 1008.6
20260506151552 19 110 1.6 8.0 0.00 0.00 0.00 65 1012.2
20260506151241 19 101 4.8 11.3 0.00 0.00 0.00 65 1008.8
20260506151053 19 58 4.8 12.9 0.00 0.00 0.00 65 1012.2
20260506150741 18 89 4.8 14.5 0.00 0.00 0.00 65 1008.8
20260506150554 18 91 6.4 9.7 0.00 0.00 0.00 65 1012.2
20260506150241 19 89 4.8 14.5 0.00 0.00 0.00 65 1008.8
20260506150052 19 79 6.4 12.9 0.00 0.00 0.00 65 1012.2
20260506145741 19 123 8.0 9.7 0.00 0.00 0.00 66 1008.8
20260506145555 19 84 8.0 11.3 0.00 0.00 0.00 65 1012.2
20260506145241 19 123 9.7 9.7 0.00 0.00 0.00 66 1009.1
20260506145054 19 119 1.6 16.1 0.00 0.00 0.00 67 1012.2
20260506144741 19 91 8.0 9.7 0.00 0.00 0.00 69 1008.9
20260506144553 19 63 6.4 9.7 0.00 0.00 0.00 70 1012.2
20260506144241 19 86 8.0 9.7 0.00 0.00 0.00 71 1008.8
20260506144051 19 213 3.2 9.7 0.00 0.00 0.00 71 1012.2
20260506143741 19 34 3.2 9.7 0.00 0.00 0.00 71 1009.1
20260506143553 19 61 4.8 16.1 0.00 0.00 0.00 71 1012.2
20260506143241 18 10 3.2 14.5 0.00 0.00 0.00 72 1008.9
20260506143052 18 77 8.0 9.7 0.00 0.00 0.00 72 1012.2
20260506142741 18 52 9.7 20.9 0.00 0.00 0.00 71 1009.0
20260506142552 18 59 11.3 14.5 0.00 0.00 0.00 72 1012.2
20260506142241 19 38 6.4 12.9 0.00 0.00 0.00 71 1008.9
20260506142054 19 77 11.3 20.9 0.00 0.00 0.00 71 1012.5
20260506141740 19 73 6.4 11.3 0.00 0.00 0.00 71 1009.2
20260506141552 19 119 6.4 14.5 0.00 0.00 0.00 70 1012.5
20260506141241 19 51 4.8 12.9 0.00 0.00 0.00 70 1009.2
20260506141053 18 33 6.4 9.7 0.00 0.00 0.00 70 1012.9
20260506140741 19 35 6.4 11.3 0.00 0.00 0.00 68 1009.3
20260506140552 19 84 6.4 14.5 0.00 0.00 0.00 68 1012.5
20260506140240 19 109 6.4 6.4 0.00 0.00 0.00 66 1009.2
20260506140053 19 69 12.9 14.5 0.00 0.00 0.00 67 1012.9
20260506135741 20 109 6.4 6.4 0.00 0.00 0.00 66 1009.3
20260506135554 20 151 1.6 6.4 0.00 0.00 0.00 65 1012.9
20260506135241 20 260 6.4 8.0 0.00 0.00 0.00 64 1009.5
20260506135053 20 46 4.8 8.0 0.00 0.00 0.00 64 1012.9
20260506134741 18 194 3.2 4.8 0.00 0.00 0.00 65 1009.6
20260506134552 19 199 1.6 4.8 0.00 0.00 0.00 65 1013.2
20260506134241 18 52 4.8 4.8 0.00 0.00 0.00 65 1009.4
20260506134050 18 300 1.6 9.7 0.00 0.00 0.00 65 1012.9
20260506133741 18 62 4.8 6.4 0.00 0.00 0.00 66 1009.5
20260506133554 19 100 4.8 9.7 0.00 0.00 0.00 65 1012.9
20260506133241 18 61 6.4 8.0 0.00 0.00 0.00 66 1009.5
20260506133052 18 33 3.2 6.4 0.00 0.00 0.00 65 1012.9
20260506132741 18 61 6.4 8.0 0.00 0.00 0.00 65 1009.5
20260506132554 19 62 4.8 9.7 0.00 0.00 0.00 65 1012.9
20260506132241 18 120 6.4 9.7 0.00 0.00 0.00 66 1009.5
20260506132053 18 23 9.7 9.7 0.00 0.00 0.00 67 1012.9
20260506131741 19 26 12.9 17.7 0.00 0.00 0.00 63 1009.4
20260506131553 19 60 11.3 17.7 0.00 0.00 0.00 66 1012.9
20260506131241 20 346 0.0 4.8 0.00 0.00 0.00 64 1009.4
20260506131053 20 18 12.9 17.7 0.00 0.00 0.00 62 1012.9
20260506130741 20 58 8.0 8.0 0.00 0.00 0.00 64 1009.5
20260506130553 20 105 3.2 12.9 0.00 0.00 0.00 63 1012.9
20260506130241 20 253 6.4 8.0 0.00 0.00 0.00 64 1009.3
20260506130055 20 181 1.6 8.0 0.00 0.00 0.00 65 1012.9
20260506125741 20 253 8.0 8.0 0.00 0.00 0.00 69 1009.4
20260506125554 19 279 3.2 9.7 0.00 0.00 0.00 69 1012.9
20260506125241 20 214 8.0 14.5 0.00 0.00 0.00 68 1009.5
20260506125053 20 214 9.7 9.7 0.00 0.00 0.00 68 1012.9
20260506124741 20 211 8.0 16.1 0.00 0.00 0.00 68 1009.6
20260506124552 20 215 11.3 14.5 0.00 0.00 0.00 68 1012.9
20260506124241 20 211 4.8 16.1 0.00 0.00 0.00 68 1009.4
20260506124053 20 170 11.3 16.1 0.00 0.00 0.00 68 1012.9
20260506123741 20 207 4.8 20.9 0.00 0.00 0.00 69 1009.4
20260506123553 20 157 4.8 17.7 0.00 0.00 0.00 68 1012.9
20260506123241 20 212 11.3 14.5 0.00 0.00 0.00 69 1009.3
20260506123053 20 217 11.3 14.5 0.00 0.00 0.00 69 1012.5
20260506122741 20 212 6.4 14.5 0.00 0.00 0.00 69 1009.1
20260506122552 20 201 6.4 19.3 0.00 0.00 0.00 68 1012.9
20260506122241 20 184 6.4 19.3 0.00 0.00 0.00 67 1009.2
20260506122054 20 255 8.0 14.5 0.00 0.00 0.00 67 1012.9
20260506121741 21 218 0.0 16.1 0.00 0.00 0.00 65 1009.2
20260506121552 20 170 1.6 6.4 0.00 0.00 0.00 64 1012.5
20260506121241 21 86 6.4 9.7 0.00 0.00 0.00 59 1009.0
20260506121052 20 259 0.0 12.9 0.00 0.00 0.00 61 1012.5
20260506120741 21 18 3.2 4.8 0.00 0.00 0.00 55 1009.0
20260506120554 21 97 12.9 16.1 0.00 0.00 0.00 58 1012.5
20260506120241 20 18 3.2 4.8 0.00 0.00 0.00 55 1009.0
20260506120053 20 73 6.4 11.3 0.00 0.00 0.00 56 1012.5
20260506115741 21 29 8.0 17.7 0.00 0.00 0.00 55 1009.2
20260506115554 21 56 9.7 20.9 0.00 0.00 0.00 55 1012.2
20260506115241 20 6 1.6 17.7 0.00 0.00 0.00 57 1008.8
20260506115054 20 303 4.8 14.5 0.00 0.00 0.00 56 1012.5
20260506114741 20 36 4.8 19.3 0.00 0.00 0.00 58 1008.9
20260506114552 20 359 6.4 16.1 0.00 0.00 0.00 57 1012.2
20260506114241 20 36 4.8 19.3 0.00 0.00 0.00 58 1008.9
20260506114052 20 13 4.8 17.7 0.00 0.00 0.00 58 1012.5
20260506113741 20 71 8.0 20.9 0.00 0.00 0.00 57 1008.9
20260506113555 20 12 9.7 24.1 0.00 0.00 0.00 58 1012.5
20260506113241 20 71 6.4 20.9 0.00 0.00 0.00 57 1009.2
20260506113053 21 85 14.5 17.7 0.00 0.00 0.00 56 1012.5
20260506112741 20 40 12.9 19.3 0.00 0.00 0.00 59 1009.1
20260506112552 20 63 8.0 9.7 0.00 0.00 0.00 58 1012.5
20260506112241 20 40 12.9 19.3 0.00 0.00 0.00 59 1009.2
20260506112053 20 51 14.5 17.7 0.00 0.00 0.00 58 1012.5
20260506111741 20 53 8.0 24.1 0.00 0.00 0.00 60 1009.2
20260506111553 20 60 8.0 16.1 0.00 0.00 0.00 59 1012.5
20260506111241 20 53 8.0 24.1 0.00 0.00 0.00 60 1009.4
20260506111053 20 48 14.5 17.7 0.00 0.00 0.00 59 1012.5
20260506110741 21 27 6.4 19.3 0.00 0.00 0.00 58 1009.2
20260506110552 21 7 6.4 19.3 0.00 0.00 0.00 59 1012.9
20260506110241 21 27 6.4 19.3 0.00 0.00 0.00 58 1009.3
20260506110052 21 28 11.3 14.5 0.00 0.00 0.00 57 1012.9
20260506105741 20 20 16.1 17.7 0.00 0.00 0.00 59 1009.4
20260506105553 20 50 14.5 22.5 0.00 0.00 0.00 58 1012.9
20260506105241 20 58 6.4 16.1 0.00 0.00 0.00 59 1009.2
20260506105053 20 16 11.3 22.5 0.00 0.00 0.00 56 1012.9
20260506104741 20 86 9.7 11.3 0.00 0.00 0.00 55 1009.3
20260506104554 20 83 9.7 16.1 0.00 0.00 0.00 58 1012.9
20260506104241 20 57 8.0 14.5 0.00 0.00 0.00 55 1009.3
20260506104055 20 71 8.0 9.7 0.00 0.00 0.00 55 1012.9
20260506103741 20 41 6.4 14.5 0.00 0.00 0.00 56 1009.4
20260506103552 20 357 4.8 14.5 0.00 0.00 0.00 56 1012.9
20260506103241 20 17 8.0 20.9 0.00 0.00 0.00 58 1009.6
20260506103054 20 33 6.4 14.5 0.00 0.00 0.00 58 1012.9
20260506102741 20 35 9.7 17.7 0.00 0.00 0.00 58 1009.5
20260506102553 21 56 8.0 20.9 0.00 0.00 0.00 57 1012.9
20260506102241 21 35 9.7 17.7 0.00 0.00 0.00 57 1009.5
20260506102052 20 352 11.3 14.5 0.00 0.00 0.00 57 1012.9
20260506101741 20 354 11.3 14.5 0.00 0.00 0.00 55 1009.3
20260506101551 20 61 8.0 20.9 0.00 0.00 0.00 57 1012.9
20260506101241 20 354 11.3 14.5 0.00 0.00 0.00 55 1009.3
20260506101053 20 10 8.0 20.9 0.00 0.00 0.00 57 1012.9
20260506100741 20 60 8.0 17.7 0.00 0.00 0.00 56 1009.4
20260506100553 20 34 6.4 14.5 0.00 0.00 0.00 56 1012.9
20260506100241 20 39 8.0 17.7 0.00 0.00 0.00 58 1009.4
20260506100054 20 229 4.8 9.7 0.00 0.00 0.00 58 1012.9
20260506095741 20 39 14.5 17.7 0.00 0.00 0.00 58 1009.3
20260506095552 20 338 1.6 14.5 0.00 0.00 0.00 58 1012.9
20260506095241 20 29 8.0 19.3 0.00 0.00 0.00 57 1009.3
20260506095052 20 47 8.0 17.7 0.00 0.00 0.00 56 1012.9
20260506094741 20 54 11.3 19.3 0.00 0.00 0.00 57 1009.4
20260506094554 20 52 4.8 17.7 0.00 0.00 0.00 57 1012.9
20260506094241 20 37 12.9 14.5 0.00 0.00 0.00 59 1009.5
20260506094052 20 51 9.7 16.1 0.00 0.00 0.00 58 1012.5
20260506093741 20 348 8.0 17.7 0.00 0.00 0.00 59 1009.4
20260506093554 20 60 11.3 12.9 0.00 0.00 0.00 59 1012.9
20260506093241 20 348 8.0 17.7 0.00 0.00 0.00 59 1009.3
20260506093053 20 32 8.0 19.3 0.00 0.00 0.00 58 1012.9
20260506092741 20 5 9.7 14.5 0.00 0.00 0.00 56 1009.2
20260506092552 20 50 8.0 16.1 0.00 0.00 0.00 56 1012.9
20260506092241 20 86 8.0 12.9 0.00 0.00 0.00 56 1009.4
20260506092053 20 2 4.8 11.3 0.00 0.00 0.00 56 1012.9
20260506091741 20 9 9.7 12.9 0.00 0.00 0.00 55 1009.4
20260506091552 20 45 14.5 14.5 0.00 0.00 0.00 54 1012.9
20260506091240 20 345 11.3 14.5 0.00 0.00 0.00 54 1009.0
20260506091054 21 6 6.4 12.9 0.00 0.00 0.00 54 1012.5
20260506090741 21 332 1.6 6.4 0.00 0.00 0.00 55 1009.1
20260506090552 21 351 6.4 8.0 0.00 0.00 0.00 54 1012.5
20260506090241 21 332 1.6 6.4 0.00 0.00 0.00 55 1009.2
20260506090054 20 308 1.6 6.4 0.00 0.00 0.00 55 1012.9
20260506085741 20 286 3.2 14.5 0.00 0.00 0.00 56 1009.1
20260506085554 20 252 1.6 14.5 0.00 0.00 0.00 55 1012.5
20260506085241 20 299 6.4 8.0 0.00 0.00 0.00 53 1009.5
20260506085050 20 281 1.6 6.4 0.00 0.00 0.00 54 1012.9
20260506084740 20 257 0.0 6.4 0.00 0.00 0.00 53 1009.4
20260506084553 20 278 3.2 6.4 0.00 0.00 0.00 54 1012.9
20260506084241 20 307 4.8 6.4 0.00 0.00 0.00 53 1009.4
20260506084053 20 328 4.8 9.7 0.00 0.00 0.00 53 1012.9
20260506083741 21 320 3.2 4.8 0.00 0.00 0.00 53 1009.4
20260506083553 20 310 1.6 11.3 0.00 0.00 0.00 53 1012.9
20260506083241 21 320 3.2 4.8 0.00 0.00 0.00 53 1009.3
20260506083054 20 88 3.2 4.8 0.00 0.00 0.00 54 1012.9
20260506082741 20 319 4.8 4.8 0.00 0.00 0.00 54 1009.3
20260506082555 20 51 3.2 4.8 0.00 0.00 0.00 55 1012.9
20260506082241 20 0 1.6 4.8 0.00 0.00 0.00 54 1009.3
20260506082052 20 62 3.2 6.4 0.00 0.00 0.00 55 1012.9
20260506081741 20 326 4.8 6.4 0.00 0.00 0.00 58 1009.2
20260506081554 19 65 3.2 6.4 0.00 0.00 0.00 56 1012.5
20260506081241 19 326 4.8 6.4 0.00 0.00 0.00 58 1009.4
20260506081054 19 299 4.8 6.4 0.00 0.00 0.00 58 1012.9
20260506080741 19 63 6.4 8.0 0.00 0.00 0.00 62 1009.5
20260506080552 19 124 3.2 6.4 0.00 0.00 0.00 60 1012.9
20260506080241 19 63 6.4 8.0 0.00 0.00 0.00 62 1009.1
20260506073241 19 92 4.8 9.7 0.00 0.00 0.00 64 1009.3
20260506073055 18 290 0.0 3.2 0.00 0.00 0.00 67 1012.9
20260506072741 18 219 1.6 3.2 0.00 0.00 0.00 69 1009.5
20260506072554 19 79 4.8 11.3 0.00 0.00 0.00 66 1012.9
20260506072241 18 69 0.0 3.2 0.00 0.00 0.00 69 1009.3
20260506072054 17 230 0.0 1.6 0.00 0.00 0.00 70 1012.9
20260506071741 18 122 1.6 9.7 0.00 0.00 0.00 70 1009.3
20260506071553 18 45 1.6 8.0 0.00 0.00 0.00 68 1012.9
20260506071241 18 75 1.6 6.4 0.00 0.00 0.00 71 1009.2
20260506071050 18 224 0.0 6.4 0.00 0.00 0.00 70 1012.5
20260506070741 18 107 6.4 12.9 0.00 0.00 0.00 71 1009.4
20260506070554 18 40 1.6 8.0 0.00 0.00 0.00 71 1012.5
20260506070241 18 165 1.6 4.8 0.00 0.00 0.00 74 1009.2
20260506062241 17 102 1.6 9.7 0.00 0.00 0.00 82 1009.2
20260506062052 17 115 4.8 9.7 0.00 0.00 0.00 82 1012.5
20260506061741 17 68 4.8 8.0 0.00 0.00 0.00 83 1009.0
20260506061552 17 111 6.4 8.0 0.00 0.00 0.00 82 1012.5
20260506061241 17 110 4.8 4.8 0.00 0.00 0.00 83 1009.3
20260506061052 17 79 3.2 4.8 0.00 0.00 0.00 83 1012.5
20260506060741 17 110 4.8 4.8 0.00 0.00 0.00 83 1009.2
20260506060552 17 112 1.6 8.0 0.00 0.00 0.00 83 1012.9
20260506060241 16 102 4.8 6.4 0.00 0.00 0.00 84 1009.3
20260506051241 15 76 3.2 4.8 0.00 0.00 0.00 91 1008.8
20260506051053 15 115 4.8 4.8 0.00 0.00 0.00 91 1012.2
20260506050741 15 96 1.6 4.8 0.00 0.00 0.00 91 1008.8
20260506050550 15 85 0.0 3.2 0.00 0.00 0.00 91 1012.2
20260506050241 15 96 4.8 4.8 0.00 0.00 0.00 91 1008.8
20260506045052 15 174 3.2 3.2 0.00 0.00 0.00 91 1012.2
20260506044741 15 89 3.2 3.2 0.00 0.00 0.00 91 1008.5
20260506044550 15 108 4.8 4.8 0.00 0.00 0.00 90 1012.2
20260506044241 15 100 3.2 4.8 0.00 0.00 0.00 90 1008.8
20260506044052 15 358 1.6 4.8 0.00 0.00 0.00 90 1011.9
20260506043741 15 121 3.2 3.2 0.00 0.00 0.00 90 1008.5
20260506043552 15 125 3.2 4.8 0.00 0.00 0.00 90 1012.2
20260506043240 15 174 0.0 3.2 0.00 0.00 0.00 90 1008.5
20260506043053 15 87 1.6 4.8 0.00 0.00 0.00 90 1011.9
20260506042740 15 86 3.2 6.4 0.00 0.00 0.00 89 1008.4
20260506042550 15 112 3.2 4.8 0.00 0.00 0.00 90 1011.9
20260506042241 15 134 0.0 6.4 0.00 0.00 0.00 89 1008.4
20260506042052 15 81 1.6 6.4 0.00 0.00 0.00 89 1011.9
20260506041741 15 142 4.8 4.8 0.00 0.00 0.00 89 1008.4
20260506041552 15 230 1.6 3.2 0.00 0.00 0.00 89 1011.9
20260506041241 15 142 4.8 4.8 0.00 0.00 0.00 89 1008.5
20260506041052 15 172 3.2 6.4 0.00 0.00 0.00 89 1011.9
20260506040741 15 206 1.6 6.4 0.00 0.00 0.00 89 1008.5
20260506040551 15 206 0.0 6.4 0.00 0.00 0.00 89 1011.9
20260506040241 15 206 1.6 6.4 0.00 0.00 0.00 89 1008.5
20260506040054 15 129 4.8 6.4 0.00 0.00 0.00 89 1011.9
20260506035741 16 122 3.2 6.4 0.00 0.00 0.00 89 1008.5
20260506035551 15 114 4.8 4.8 0.00 0.00 0.00 89 1011.9
20260506035241 16 122 3.2 6.4 0.00 0.00 0.00 89 1008.4
20260506035052 16 112 1.6 4.8 0.00 0.00 0.00 89 1011.9
20260506034740 16 52 4.8 8.0 0.00 0.00 0.00 88 1008.5
20260506034551 16 13 1.6 4.8 0.00 0.00 0.00 88 1011.9
20260506034241 16 52 4.8 8.0 0.00 0.00 0.00 88 1008.6
20260506034054 16 62 6.4 8.0 0.00 0.00 0.00 88 1011.9
20260506033740 16 61 1.6 6.4 0.00 0.00 0.00 88 1008.3
20260506033552 16 82 8.0 8.0 0.00 0.00 0.00 88 1011.9
20260506033241 16 12 4.8 6.4 0.00 0.00 0.00 88 1008.3
20260506033051 16 64 8.0 8.0 0.00 0.00 0.00 88 1011.9
20260506032740 16 60 3.2 8.0 0.00 0.00 0.00 87 1008.1
20260506032558 16 63 4.8 6.4 0.00 0.00 0.00 87 1011.9
20260506032241 16 92 4.8 8.0 0.00 0.00 0.00 87 1008.3
20260506032051 16 56 4.8 8.0 0.00 0.00 0.00 87 1011.5
20260506031741 16 75 6.4 11.3 0.00 0.00 0.00 87 1008.2
20260506031552 16 81 3.2 6.4 0.00 0.00 0.00 87 1011.2
20260506031241 16 75 6.4 11.3 0.00 0.00 0.00 87 1007.9
20260506031051 16 24 3.2 9.7 0.00 0.00 0.00 87 1011.5
20260506030741 16 20 8.0 8.0 0.00 0.00 0.00 87 1007.9
20260506030552 16 25 4.8 11.3 0.00 0.00 0.00 87 1011.5
20260506030241 16 27 8.0 8.0 0.00 0.00 0.00 87 1007.8
20260506030052 16 351 4.8 12.9 0.00 0.00 0.00 87 1011.2
20260506025741 16 6 9.7 14.5 0.00 0.00 0.00 88 1007.8
20260506025550 16 347 4.8 9.7 0.00 0.00 0.00 88 1011.2
20260506025241 16 348 4.8 12.9 0.00 0.00 0.00 88 1007.9
20260506025051 16 14 11.3 11.3 0.00 0.00 0.00 88 1011.2
20260506024741 16 39 4.8 8.0 0.00 0.00 0.00 89 1008.0
20260506024551 16 20 6.4 9.7 0.00 0.00 0.00 89 1011.5
20260506024241 16 32 4.8 6.4 0.00 0.00 0.00 89 1007.8
20260506024053 16 44 3.2 6.4 0.00 0.00 0.00 89 1011.5
20260506023740 16 10 3.2 4.8 0.00 0.00 0.00 90 1007.9
20260506023552 16 356 1.6 4.8 0.00 0.00 0.00 90 1011.5
20260506023241 16 36 4.8 8.0 0.00 0.00 0.00 90 1008.0
20260506023050 16 351 1.6 6.4 0.00 0.00 0.00 90 1011.5
20260506022741 16 34 4.8 4.8 0.00 0.00 0.00 90 1008.1
20260506022552 16 6 8.0 8.0 0.00 0.00 0.00 90 1011.5
20260506022241 16 237 0.0 6.4 0.00 0.00 0.00 90 1008.1
20260506022050 16 37 0.0 8.0 0.00 0.00 0.00 90 1011.2
20260506021740 16 357 4.8 8.0 0.00 0.00 0.00 90 1008.1
20260506021552 16 45 1.6 6.4 0.00 0.00 0.00 90 1011.5
20260506021241 16 357 4.8 8.0 0.00 0.00 0.00 90 1007.8
20260506021051 16 4 8.0 8.0 0.00 0.00 0.00 90 1011.5
20260506020741 16 18 4.8 4.8 0.00 0.00 0.00 90 1007.9
20260506020553 16 5 4.8 6.4 0.00 0.00 0.00 90 1011.2
20260506020241 16 18 4.8 4.8 0.00 0.00 0.00 90 1008.0
20260506020051 16 63 1.6 3.2 0.00 0.00 0.00 90 1011.2
20260506015741 16 67 1.6 3.2 0.00 0.00 0.00 90 1008.0
20260506015552 16 53 1.6 4.8 0.00 0.00 0.00 90 1011.2
20260506015241 16 45 1.6 4.8 0.00 0.00 0.00 90 1007.9
20260506015052 16 16 1.6 4.8 0.00 0.00 0.00 90 1011.5
20260506014741 16 40 3.2 8.0 0.00 0.00 0.00 90 1008.0
20260506014553 16 236 0.0 4.8 0.00 0.00 0.00 90 1011.5
20260506014241 16 2 6.4 8.0 0.00 0.00 0.00 90 1007.9
20260506014051 16 11 4.8 8.0 0.00 0.00 0.00 90 1011.2
20260506013742 16 313 6.4 6.4 0.00 0.00 0.00 90 1007.7
20260506013552 16 6 3.2 8.0 0.00 0.00 0.00 90 1011.2
20260506013241 16 3 8.0 8.0 0.00 0.00 0.00 90 1007.8
20260506013050 16 345 8.0 9.7 0.00 0.00 0.00 90 1011.2
20260506012741 16 335 3.2 11.3 0.00 0.00 0.00 90 1007.9
20260506012553 16 302 3.2 9.7 0.00 0.00 0.00 90 1011.2
20260506012240 16 335 4.8 12.9 0.00 0.00 0.00 90 1007.8
20260506012052 16 329 1.6 8.0 0.00 0.00 0.00 90 1011.2
20260506011741 16 341 3.2 4.8 0.00 0.00 0.00 90 1007.9
20260506011553 16 329 4.8 8.0 0.00 0.00 0.00 90 1011.2
20260506011240 16 313 4.8 4.8 0.00 0.00 0.00 89 1007.9
20260506011052 16 262 1.6 6.4 0.00 0.00 0.00 90 1011.2
20260506010741 16 299 1.6 3.2 0.00 0.00 0.00 89 1007.8
20260506010554 16 274 0.0 4.8 0.00 0.00 0.00 89 1011.2
20260506010241 16 313 3.2 4.8 0.00 0.00 0.00 89 1008.0
20260506010052 16 244 1.6 3.2 0.00 0.00 0.00 89 1011.5
20260506005740 17 312 4.8 6.4 0.00 0.00 0.00 89 1008.0
20260506005555 17 279 4.8 6.4 0.00 0.00 0.00 89 1011.2
20260506005240 17 303 3.2 6.4 0.00 0.00 0.00 89 1008.0
20260506005052 17 358 4.8 6.4 0.00 0.00 0.00 89 1011.5
20260506004741 17 260 1.6 6.4 0.00 0.00 0.00 89 1008.0
20260506004553 17 316 3.2 4.8 0.00 0.00 0.00 89 1011.5
20260506004241 17 260 1.6 6.4 0.00 0.00 0.00 89 1008.3
20260506004051 17 326 3.2 6.4 0.00 0.00 0.00 89 1011.9
20260506003741 17 333 6.4 8.0 0.00 0.00 0.00 89 1008.2
20260506003553 17 354 6.4 9.7 0.00 0.00 0.00 89 1011.9
20260506003241 17 346 3.2 9.7 0.00 0.00 0.00 89 1008.3
20260506003052 17 321 6.4 8.0 0.00 0.00 0.00 89 1011.5
20260506002741 17 289 4.8 8.0 0.00 0.00 0.00 89 1008.3
20260506002551 17 304 4.8 9.7 0.00 0.00 0.00 89 1011.5
20260506002241 17 311 3.2 11.3 0.00 0.00 0.00 88 1008.4
20260506002052 17 322 6.4 9.7 0.00 0.00 0.00 89 1011.9
20260506001740 17 350 3.2 8.0 0.00 0.00 0.00 88 1008.4
20260506001553 17 299 4.8 9.7 0.00 0.00 0.00 88 1011.9
20260506001241 17 331 3.2 8.0 0.00 0.00 0.00 88 1008.7
20260506001050 17 327 4.8 11.3 0.00 0.00 0.00 88 1011.9
20260506000741 17 329 4.8 8.0 0.00 0.00 0.00 88 1008.7
20260506000552 17 351 4.8 6.4 0.00 0.00 0.00 88 1011.9
20260506000241 17 303 6.4 8.0 0.00 0.00 0.00 88 1008.5
20260506000052 17 290 4.8 6.4 0.00 0.00 0.00 88 1012.2
20260505235741 17 268 6.4 9.7 0.00 0.00 0.00 87 1008.5
20260505235552 17 281 6.4 9.7 0.00 0.00 0.00 87 1011.9
20260505235241 17 268 8.0 9.7 0.00 0.00 0.00 87 1008.5
20260505235052 17 289 4.8 8.0 0.00 0.00 0.00 87 1011.9
20260505234741 17 277 4.8 8.0 0.00 0.00 0.00 87 1008.3
20260505234550 17 262 4.8 8.0 0.00 0.00 0.00 87 1011.9
20260505234241 17 279 4.8 6.4 0.00 0.00 0.00 86 1008.5
20260505234051 17 300 6.4 8.0 0.00 0.00 0.00 86 1011.9
20260505233741 17 320 4.8 8.0 0.00 0.00 0.00 86 1008.5
20260505233556 17 281 4.8 6.4 0.00 0.00 0.00 86 1011.9
20260505233241 17 320 4.8 8.0 0.00 0.00 0.00 86 1008.6
20260505233051 17 275 6.4 6.4 0.00 0.00 0.00 86 1011.9
20260505232741 17 298 4.8 6.4 0.00 0.00 0.00 86 1008.6
20260505232552 17 313 4.8 4.8 0.00 0.00 0.00 86 1011.9
20260505232241 17 320 3.2 6.4 0.00 0.00 0.00 86 1008.7
20260505232057 17 315 3.2 8.0 0.00 0.00 0.00 86 1012.2
20260505231741 17 320 3.2 6.4 0.00 0.00 0.00 86 1008.6
20260505231555 17 302 4.8 8.0 0.00 0.00 0.00 86 1012.2
20260505231241 17 305 4.8 8.0 0.00 0.00 0.00 86 1008.7
20260505231049 17 277 4.8 8.0 0.00 0.00 0.00 86 1011.9
20260505230741 17 293 4.8 4.8 0.00 0.00 0.00 86 1008.6
20260505230553 17 306 6.4 8.0 0.00 0.00 0.00 86 1012.2
20260505230240 17 293 1.6 4.8 0.00 0.00 0.00 86 1008.6
20260505230052 17 81 1.6 6.4 0.00 0.00 0.00 86 1012.2
20260505225741 17 306 3.2 4.8 0.00 0.00 0.00 86 1008.7
20260505225241 17 269 3.2 6.4 0.00 0.00 0.00 86 1008.7
20260505225131 17 255 1.6 6.4 0.00 0.00 0.00 86 1012.2
20260505224741 17 269 3.2 6.4 0.00 0.00 0.00 86 1008.8
20260505224550 17 291 4.8 8.0 0.00 0.00 0.00 86 1012.2
20260505224241 17 262 3.2 6.4 0.00 0.00 0.00 86 1008.8
20260505224051 17 314 8.0 8.0 0.00 0.00 0.00 86 1012.2
20260505223741 17 262 3.2 6.4 0.00 0.00 0.00 86 1008.7
20260505223554 17 262 3.2 8.0 0.00 0.00 0.00 86 1012.2
20260505223241 17 339 3.2 6.4 0.00 0.00 0.00 86 1008.8
20260505223052 17 290 3.2 6.4 0.00 0.00 0.00 86 1012.2
20260505222741 17 276 4.8 8.0 0.00 0.00 0.00 86 1008.9
20260505222556 17 296 4.8 6.4 0.00 0.00 0.00 86 1012.2
20260505222241 17 277 3.2 4.8 0.00 0.00 0.00 86 1008.9
20260505222052 17 314 3.2 6.4 0.00 0.00 0.00 86 1012.2
20260505221741 17 30 3.2 11.3 0.00 0.00 0.00 86 1008.9
20260505221550 17 317 1.6 6.4 0.00 0.00 0.00 86 1012.2
20260505221241 17 267 3.2 3.2 0.00 0.00 0.00 86 1008.8
20260505221051 17 317 4.8 8.0 0.00 0.00 0.00 86 1012.2
20260505220741 17 290 1.6 4.8 0.00 0.00 0.00 86 1008.9
20260505220554 17 235 0.0 1.6 0.00 0.00 0.00 86 1012.2
20260505220241 17 275 4.8 6.4 0.00 0.00 0.00 86 1009.1
20260505220050 18 260 3.2 4.8 0.00 0.00 0.00 86 1012.5
20260505215741 17 287 3.2 8.0 0.00 0.00 0.00 87 1008.9
20260505215555 17 253 3.2 6.4 0.00 0.00 0.00 86 1012.2
20260505215241 18 287 3.2 8.0 0.00 0.00 0.00 87 1009.1
20260505215052 18 289 8.0 8.0 0.00 0.00 0.00 87 1012.2
20260505214741 18 305 1.6 3.2 0.00 0.00 0.00 87 1008.9
20260505214552 18 282 4.8 4.8 0.00 0.00 0.00 87 1012.5
20260505214241 18 289 1.6 3.2 0.00 0.00 0.00 87 1008.9
20260505214051 18 230 0.0 3.2 0.00 0.00 0.00 87 1012.2
20260505213740 18 290 3.2 3.2 0.00 0.00 0.00 87 1008.8
20260505213552 18 275 0.0 4.8 0.00 0.00 0.00 87 1012.2
20260505213241 18 278 3.2 4.8 0.00 0.00 0.00 88 1009.2
20260505213052 18 271 3.2 4.8 0.00 0.00 0.00 87 1012.2
20260505212740 18 282 4.8 8.0 0.00 0.00 0.00 88 1009.0
20260505212553 18 279 3.2 6.4 0.00 0.00 0.00 88 1012.2
20260505212241 18 282 4.8 6.4 0.00 0.00 0.00 88 1009.0
20260505212052 18 288 6.4 6.4 0.00 0.00 0.00 88 1012.2
20260505211741 18 351 1.6 4.8 0.00 0.00 0.00 88 1008.9
20260505211551 17 247 3.2 3.2 0.00 0.00 0.00 88 1012.2
20260505211241 18 351 3.2 4.8 0.00 0.00 0.00 88 1008.6
20260505211054 18 261 4.8 6.4 0.00 0.00 0.00 88 1012.2
20260505210741 18 278 4.8 4.8 0.00 0.00 0.00 88 1008.8
20260505210552 18 273 6.4 6.4 0.00 0.00 0.00 88 1011.9
20260505210240 18 278 4.8 4.8 0.00 0.00 0.00 88 1008.4
20260505210055 18 244 4.8 4.8 0.00 0.00 0.00 88 1011.9
20260505205741 18 265 6.4 9.7 0.00 0.00 0.00 88 1008.5
20260505205552 18 262 4.8 6.4 0.00 0.00 0.00 88 1012.2
20260505205240 18 280 8.0 8.0 0.00 0.00 0.00 87 1008.5
20260505205052 18 248 4.8 8.0 0.00 0.00 0.00 87 1011.9
20260505204740 18 266 6.4 9.7 0.00 0.00 0.00 87 1008.5
20260505204553 18 265 3.2 6.4 0.00 0.00 0.00 87 1011.9
20260505204240 18 277 4.8 6.4 0.00 0.00 0.00 87 1008.4
20260505204055 18 274 6.4 11.3 0.00 0.00 0.00 87 1011.9
20260505203740 18 220 9.7 12.9 0.00 0.00 0.00 87 1008.4
20260505203552 18 252 3.2 9.7 0.00 0.00 0.00 87 1011.5
20260505203241 18 203 8.0 9.7 0.00 0.00 0.00 87 1008.3
20260505203052 18 234 3.2 8.0 0.00 0.00 0.00 87 1011.5
20260505202741 18 203 6.4 9.7 0.00 0.00 0.00 87 1008.2
20260505202554 18 278 6.4 11.3 0.00 0.00 0.00 87 1011.9
20260505202240 18 246 6.4 9.7 0.00 0.00 0.00 87 1008.2
20260505202053 18 231 6.4 11.3 0.00 0.00 0.00 87 1011.5
20260505201741 18 223 8.0 11.3 0.00 0.00 0.00 86 1008.2
20260505201553 18 237 3.2 9.7 0.00 0.00 0.00 87 1011.5
20260505201241 18 213 8.0 9.7 0.00 0.00 0.00 86 1008.2
20260505201053 18 262 6.4 12.9 0.00 0.00 0.00 86 1011.5
20260505200741 18 241 4.8 9.7 0.00 0.00 0.00 86 1008.1
20260505200556 18 268 4.8 9.7 0.00 0.00 0.00 86 1011.5
20260505200241 18 269 11.3 14.5 0.00 0.00 0.00 86 1008.2
20260505200052 18 260 9.7 11.3 0.00 0.00 0.00 86 1011.9
20260505195741 18 264 9.7 16.1 0.00 0.00 0.00 86 1008.2